sat.trackr.live / text

‹ back to catalog

ONEWEB-0715

NORAD 55176 · 2023-004AN

PAYLOAD ACTIVE UNKNOWN

§ Identity

Operator
Country
UK
Launch date
2023-01-10
Launch site
AFETR
Launch vehicle
Mass (kg)
RCS (m²)

Purposes: comms

External: N2YO · Heavens-Above · Gunter

§ Orbital elements

Epoch: 2026-05-25T03:32:19.908096Z

Period
109.81 min
Inclination
87.8912°
Eccentricity
0.0001298
Mean motion
13.11414805 rev/d
Perigee alt
1,216.7 km
Apogee alt
1,218.7 km
Semi-major
7,595.8 km
B*
-1.2253e-3
RAAN
25.6528°
Arg perigee
100.4969°
Mean anomaly
259.6305°
Rev number
16,284

§ Raw data

ONEWEB-07151 55176U 23004AN  26145.14745264 -.00000422  00000+0 -12253-2 0  99982 55176  87.8912  25.6528 0001298 100.4969 259.6305 13.11414805162847

JSON: /api/v1/satellites/55176 · /tle

For live sub-satellite position, see the globe view (requires WebGL).

§ Visibility from observer

Set your observer location to see the next 7 days of passes ≥ 10°. The values pass through the URL so the page stays shareable.

No JS? Fill the form by hand. The geolocation button needs JavaScript.